Location: *
(42.5628°N, 2.3633°E)
Time: 09:09:51
(UTC+00:00)

Cosmos 1470 - Pass Details

Date: 30 March 2020
Orbit: 520 x 543 km, 82.5° (Epoch: 03 June)

Event Time Altitude Azimuth Distance (km) Brightness Sun altitude
Rises 19:25:07 0° 181° (S) 2,634 6.1 -13.5°
Reaches altitude 10° 19:27:15 10° 179° (S) 1,753 5.2 -13.8°
Maximum altitude 19:31:04 70° 97° (E) 563 2.6 -14.5°
Drops below altitude 10° 19:34:57 10° 13° (NNE) 1,778 5.5 -15.2°
Sets 19:37:07 0° 11° (N) 2,676 6.5 -15.5°
